Weather History for Corinth, MS

Change the Weather History Date:

Friday, October 18, 2013

  Actual Average Record
Temperature  
Mean Temperature 56 °F -  
Max Temperature 68 °F 73 °F 90 °F (1953)
Min Temperature 44 °F 47 °F 30 °F (1948)
Degree Days  
Heating Degree Days 9    
Growing Degree Days 6 (Base 50)    
Moisture  
Dew Point 48 °F    
Average Humidity 80    
Maximum Humidity 100    
Minimum Humidity 46    
Precipitation  
Precipitation 0.00 in - - ()
Sea Level Pressure  
Sea Level Pressure 30.03 in    
Wind  
Wind Speed 1 mph (ESE)    
Max Wind Speed 7 mph    
Max Gust Speed -    
Visibility 7 miles    
Events Fog    
Averages and records for this station are not official NWS values.
T = Trace of Precipitation, MM = Missing Value Source: NWS Daily Summary

Daily Weather History Graph

Daily Weather History Graph

Search for Another Location

Airport:

Trip Planner

Search our weather history database for the weather conditions in past years. The results will help you decide how hot, cold, wet, or windy it might be!

Date:

Astronomy

Oct. 18, 2013 Rise Set
Actual Time 7:02 AM CDT 6:15 PM CDT
Civil Twilight 6:37 AM CDT 6:41 PM CDT
Nautical Twilight 6:07 AM CDT 7:10 PM CDT
Astronomical Twilight 5:38 AM CDT 7:39 PM CDT
Moon 6:06 PM CDT (10/18) 6:38 AM CDT (10/18)
Length of Visible Light 12h 03m
Length of Day
11h 12m
Full, 100% of the Moon is Illuminated
Oct 18
Full
Oct 18
Full
Oct 26
Last Quarter
Nov 3
New
Nov 9
First Quarter

Hourly Weather History & Observations

Time (CDT) Temp. Dew Point Humidity Pressure Visibility Wind Dir Wind Speed Gust Speed Precip Events Conditions
12:10 AM 48.2 °F 48.2 °F 100% 30.02 in 0.2 mi Calm Calm - N/A Fog Fog
12:30 AM 48.2 °F 48.2 °F 100% 30.02 in 0.5 mi Calm Calm - N/A Fog Fog
12:50 AM 48.2 °F 46.4 °F 93% 30.03 in 0.5 mi Calm Calm - N/A Fog Fog
1:10 AM 48.2 °F 46.4 °F 93% 30.03 in 0.5 mi NW 3.5 mph - N/A Fog Fog
1:30 AM 48.2 °F 46.4 °F 93% 30.03 in 0.8 mi Calm Calm - N/A   Mist
1:50 AM 48.2 °F 46.4 °F 93% 30.03 in 0.8 mi Calm Calm - N/A   Mist
2:10 AM 48.2 °F 46.4 °F 93% 30.03 in 0.2 mi Calm Calm - N/A Fog Fog
2:30 AM 46.4 °F 46.4 °F 100% 30.03 in 0.2 mi Calm Calm - N/A Fog Fog
2:50 AM 46.4 °F 44.6 °F 93% 30.03 in 0.8 mi Calm Calm - N/A   Overcast
3:10 AM 46.4 °F 44.6 °F 93% 30.03 in 0.8 mi Calm Calm - N/A   Overcast
3:30 AM 46.4 °F 44.6 °F 93% 30.03 in 0.2 mi Calm Calm - N/A Fog Fog
3:50 AM 46.4 °F 44.6 °F 93% 30.03 in 0.5 mi Calm Calm - N/A Fog Fog
4:10 AM 46.4 °F 44.6 °F 93% 30.03 in 0.5 mi Calm Calm - N/A Fog Fog
4:30 AM 46.4 °F 44.6 °F 93% 30.03 in 1.0 mi Calm Calm - N/A   Mostly Cloudy
4:50 AM 46.4 °F 44.6 °F 93% 30.04 in 0.5 mi Calm Calm - N/A Fog Fog
5:10 AM 44.6 °F 42.8 °F 93% 30.04 in 0.2 mi Calm Calm - N/A Fog Fog
5:30 AM 44.6 °F 42.8 °F 93% 30.05 in 0.5 mi Calm Calm - N/A Fog Fog
5:50 AM 44.6 °F 42.8 °F 93% 30.05 in 1.0 mi Calm Calm - N/A   Clear
6:10 AM 44.6 °F 42.8 °F 93% 30.06 in 1.8 mi Calm Calm - N/A   Scattered Clouds
6:30 AM 44.6 °F 44.6 °F 100% 30.06 in 10.0 mi Calm Calm - N/A   Partly Cloudy
6:50 AM 44.6 °F 44.6 °F 100% 30.06 in 10.0 mi Calm Calm - N/A   Mostly Cloudy
7:10 AM 44.6 °F 44.6 °F 100% 30.07 in 10.0 mi Calm Calm - N/A   Overcast
7:30 AM 44.6 °F 42.8 °F 93% 30.07 in 0.2 mi Calm Calm - N/A Fog Fog
7:50 AM 44.6 °F 44.6 °F 100% 30.08 in 1.0 mi Calm Calm - N/A   Mostly Cloudy
8:10 AM 46.4 °F 46.4 °F 100% 30.08 in 9.0 mi Calm Calm - N/A   Clear
8:30 AM 48.2 °F 48.2 °F 100% 30.09 in 10.0 mi Calm Calm - N/A   Scattered Clouds
8:50 AM 50.0 °F 50.0 °F 100% 30.09 in 10.0 mi Calm Calm - N/A   Mostly Cloudy
9:10 AM 51.8 °F 50.0 °F 94% 30.09 in 10.0 mi Calm Calm - N/A   Partly Cloudy
9:30 AM 53.6 °F 50.0 °F 88% 30.09 in 10.0 mi Calm Calm - N/A   Partly Cloudy
9:50 AM 55.4 °F 51.8 °F 88% 30.09 in 10.0 mi Calm Calm - N/A   Partly Cloudy
10:10 AM 57.2 °F 53.6 °F 88% 30.10 in 10.0 mi Calm Calm - N/A   Clear
10:30 AM 57.2 °F 53.6 °F 88% 30.10 in 10.0 mi Calm Calm - N/A   Clear
10:50 AM 59.0 °F 53.6 °F 82% 30.10 in 10.0 mi Calm Calm - N/A   Clear
11:10 AM 59.0 °F 51.8 °F 77% 30.09 in 10.0 mi Calm Calm - N/A   Clear
11:30 AM 62.6 °F 50.0 °F 63% 30.08 in 10.0 mi Calm Calm - N/A   Clear
11:50 AM 62.6 °F 48.2 °F 59% 30.08 in 10.0 mi NE 4.6 mph - N/A   Clear
12:10 PM 62.6 °F 48.2 °F 59% 30.06 in 10.0 mi Calm Calm - N/A   Clear
12:30 PM 66.2 °F 46.4 °F 49% 30.06 in 10.0 mi SE 6.9 mph - N/A   Clear
12:50 PM 64.4 °F 46.4 °F 52% 30.05 in 10.0 mi SE 3.5 mph - N/A   Partly Cloudy
1:10 PM 66.2 °F 46.4 °F 49% 30.04 in 10.0 mi SE 6.9 mph - N/A   Partly Cloudy
1:30 PM 66.2 °F 44.6 °F 46% 30.03 in 10.0 mi South 3.5 mph - N/A   Clear
1:50 PM 66.2 °F 44.6 °F 46% 30.02 in 10.0 mi Calm Calm - N/A   Partly Cloudy
2:10 PM 66.2 °F 44.6 °F 46% 30.01 in 10.0 mi NNE 4.6 mph - N/A   Clear
2:30 PM 66.2 °F 44.6 °F 46% 30.00 in 10.0 mi Calm Calm - N/A   Clear
2:50 PM 66.2 °F 44.6 °F 46% 30.00 in 10.0 mi Calm Calm - N/A   Clear
3:10 PM 66.2 °F 46.4 °F 49% 29.99 in 10.0 mi East 5.8 mph - N/A   Partly Cloudy
3:30 PM 66.2 °F 44.6 °F 46% 29.98 in 10.0 mi Calm Calm - N/A   Partly Cloudy
3:50 PM 68.0 °F 46.4 °F 46% 29.98 in 10.0 mi Calm Calm - N/A   Clear
4:10 PM 66.2 °F 46.4 °F 49% 29.96 in 10.0 mi East 6.9 mph - N/A   Partly Cloudy
4:30 PM 66.2 °F 44.6 °F 46% 29.96 in 10.0 mi East 3.5 mph - N/A   Clear
4:50 PM 66.2 °F 44.6 °F 46% 29.96 in 10.0 mi East 5.8 mph - N/A   Clear
5:10 PM 66.2 °F 44.6 °F 46% 29.96 in 10.0 mi East 4.6 mph - N/A   Clear
5:30 PM 64.4 °F 48.2 °F 56% 29.97 in 10.0 mi SE 4.6 mph - N/A   Clear
5:50 PM 62.6 °F 50.0 °F 63% 29.98 in 10.0 mi Calm Calm - N/A   Clear
6:10 PM 59.0 °F 50.0 °F 72% 29.99 in 10.0 mi Calm Calm - N/A   Partly Cloudy
6:30 PM 59.0 °F 51.8 °F 77% 30.00 in 10.0 mi Calm Calm - N/A   Mostly Cloudy
6:50 PM 57.2 °F 51.8 °F 82% 30.00 in 10.0 mi Calm Calm - N/A   Mostly Cloudy
7:10 PM 57.2 °F 53.6 °F 88% 30.00 in 10.0 mi Calm Calm - N/A   Scattered Clouds
7:30 PM 55.4 °F 53.6 °F 94% 30.00 in 10.0 mi Calm Calm - N/A   Clear
7:50 PM 55.4 °F 51.8 °F 88% 30.00 in 10.0 mi Calm Calm - N/A   Clear
8:10 PM 55.4 °F 51.8 °F 88% 30.01 in 10.0 mi WNW 3.5 mph - N/A   Clear
8:30 PM 55.4 °F 51.8 °F 88% 30.01 in 10.0 mi Calm Calm - N/A   Clear
8:50 PM 55.4 °F 51.8 °F 88% 30.02 in 10.0 mi Calm Calm - N/A   Clear
9:10 PM 55.4 °F 51.8 °F 88% 30.03 in 10.0 mi Calm Calm - N/A   Partly Cloudy
9:30 PM 55.4 °F 51.8 °F 88% 30.02 in 10.0 mi Calm Calm - N/A   Partly Cloudy
9:50 PM 55.4 °F 53.6 °F 94% 30.02 in 10.0 mi Calm Calm - N/A   Clear
10:10 PM 55.4 °F 51.8 °F 88% 30.02 in 10.0 mi SSE 3.5 mph - N/A   Mostly Cloudy
10:30 PM 55.4 °F 53.6 °F 94% 30.01 in 10.0 mi SSE 3.5 mph - N/A   Overcast
10:50 PM 55.4 °F 53.6 °F 94% 30.00 in 10.0 mi Calm Calm - N/A   Overcast
11:10 PM 55.4 °F 53.6 °F 94% 30.00 in 10.0 mi Calm Calm - N/A   Overcast
11:30 PM 55.4 °F 53.6 °F 94% 30.00 in 10.0 mi SE 3.5 mph - N/A   Overcast
11:50 PM 55.4 °F 53.6 °F 94% 29.99 in 10.0 mi Calm Calm - N/A   Overcast